Regional Weather Roundup
Issued by NWS

Home | Current Version | Previous Version | Text Only | Print | Product List | Glossary On
Versions: 1 2 3 4 5 6 7 8 9 10 11 12 13 14 15 16 17 18 19 20 21 22 23 24 25 26 27 28 29 30 31 32 33 34 35 36 37 38 39 40 41 42 43 44 45 46 47 48 49 50
000
ASUS43 KMKX 200759
RWRWI

WISCONSIN REGIONAL WEATHER ROUNDUP
NATIONAL WEATHER SERVICE MILWAUKEE/SULLIVAN WI
200 AM CST MON NOV 20 2017

NOTE: "FAIR" INDICATES FEW OR NO CLOUDS BELOW 12,000 FEET WITH NO
SIGNIFICANT WEATHER AND/OR OBSTRUCTIONS TO VISIBILITY.

WIZ001-002-006>008-014>016-023>028-200900-
NORTHWEST WISCONSIN

CITY           SKY/WX    TMP DP  RH WIND       PRES   REMARKS
SUPERIOR ARPT  CLOUDY    17  15  93 CALM      29.77S
ASHLAND        CLEAR     16  13  88 CALM      29.77F
HAYWARD        CLEAR     17  14  88 CALM      29.75F
SIREN          CLEAR     21  18  89 SE3       29.75F
CUMBERLAND     CLEAR     23  19  86 CALM      29.76F
RICE LAKE      CLEAR     22  19  89 SE3       29.78F
CHETEK         CLEAR     20  18  90 CALM      29.78F
LADYSMITH      CLEAR     23  20  87 SE3       29.79F
EAU CLAIRE     NOT AVBL
MENOMONIE      CLEAR     26  24  91 E3        29.79F
NEW RICHMOND   CLEAR     30  24  79 S6        29.77F WCI  24
OSCEOLA        CLEAR     26  26  96 SE5       29.79F WCI  21
$$

WIZ003>005-009-010-017-018-200900-
NORTH CENTRAL WISCONSIN

CITY           SKY/WX    TMP DP  RH WIND       PRES   REMARKS
MANITOWISH WTR PTCLDY    12  12 100 CALM      29.77S
ARBOR VITAE    CLEAR     18  16  91 CALM      29.77S
WOODRUFF       CLEAR     18  16  91 CALM      29.77S
RHINELANDER    CLEAR    N/A N/A N/A SW3       29.78F
EAGLE RIVER    CLEAR     13  13  97 CALM      29.77S
LAND O LAKES   PTCLDY    14  12  92 CALM      29.79S
PHILLIPS       CLOUDY    20  18  93 CALM      29.76F
TOMAHAWK       CLEAR     15  13  92 CALM      29.79F
MEDFORD        CLEAR     24  21  87 CALM      29.79S
MERRILL        CLEAR     20  17  89 CALM      29.81S
$$

WIZ029-030-035-036-043>047-200900-
CENTRAL WISCONSIN

CITY           SKY/WX    TMP DP  RH WIND       PRES   REMARKS
WAUSAU         CLEAR     26  20  77 SW7       29.81S WCI  18
MOSINEE        CLEAR     21  19  93 S6        29.83S WCI  14
MARSHFIELD     CLEAR     24  19  81 CALM      29.80F
STEVENS POINT  CLEAR     20  19  92 CALM      29.84F
WAUPACA        PTCLDY    26  20  80 CALM      29.86F
WAUTOMA        CLEAR     18  15  88 CALM      29.88S
WISC RAPIDS    CLEAR     22  19  89 S3        29.85F
CAMP DOUGLAS   CLEAR    N/A N/A N/A SW5       29.86S
$$

WIZ011>013-019>022-031-037>040-048>050-200900-
NORTHEAST WISCONSIN

CITY           SKY/WX    TMP DP  RH WIND       PRES   REMARKS
ANTIGO         CLEAR     22  18  85 S3        29.81S
SHAWANO        PTCLDY    26  20  75 CALM      29.85S
OCONTO         CLOUDY    25  18  76 CALM      29.87S
STURGEON BAY   MOCLDY    28  21  75 S6        29.88S WCI  22
GREEN BAY      PTCLDY    29  24  82 SW6       29.87F WCI  23
MANITOWOC      PTCLDY    30  23  75 SW8       29.89F WCI  22
APPLETON       CLEAR     28  21  74 SW8       29.85S WCI  20
CLINTONVILLE   CLEAR     27  19  74 SW5       29.86S WCI  21
OSHKOSH        CLEAR     29  22  75 SW9       29.87F WCI  20
$$

WIZ032>034-041-042-053>061-200900-
SOUTHWEST WISCONSIN

CITY           SKY/WX    TMP DP  RH WIND       PRES   REMARKS
LA CROSSE      CLEAR     35  26  69 S10       29.86R WCI  27
SPARTA         CLEAR     22  20  93 E3        29.86F
VIROQUA        CLEAR     32  27  80 SW6       29.85S WCI  26
BOSCOBEL       CLOUDY    27  22  81 CALM      29.90F
PRAIRIE DU CHI CLOUDY    36  24  62 CALM      29.89F
PLATTEVILLE    CLOUDY    30  27  88 S8        29.91F WCI  22
$$

WIZ056-057-062-063-064-067-068-200900-
SOUTH CENTRAL WISCONSIN

CITY           SKY/WX    TMP DP  RH WIND       PRES   REMARKS
REEDSBURG      CLEAR     31  23  71 CALM      29.88S
BARABOO/DELLS  CLEAR     32  23  69 SW8       29.87F WCI  25
LONE ROCK      NOT AVBL
MINERAL POINT  CLOUDY    32  28  86 S8        29.90F WCI  25
MADISON        CLEAR     33  24  69 S9        29.90F WCI  25
MIDDLETON      CLEAR     34  25  69 SW12      29.90F WCI  25
WATERTOWN      CLEAR     28  24  86 S6        29.92S WCI  21
MONROE         CLOUDY    30  25  80 SW16      29.92F WCI  19
JANESVILLE     CLOUDY    30  25  80 S9        29.95S WCI  22
$$

WIZ051-052-058>065-066-070>072-200900-
SOUTHEAST WISCONSIN

CITY           SKY/WX    TMP DP  RH WIND       PRES   REMARKS
MILWAUKEE      PTCLDY    31  23  72 SW10      29.95F WCI  22
WAUKESHA       CLEAR     28  21  74 S3        29.94F
MILWAUKEE/TIMM CLEAR     30  19  64 SW7       29.95F WCI  23
RACINE         CLEAR     31  23  72 SW9       29.97F WCI  23
BURLINGTON     CLEAR     31  28  87 S7        29.95F WCI  24
KENOSHA        CLEAR     32  22  66 SW9       29.97F WCI  24
FOND DU LAC    CLEAR     30  21  69 SW13      29.89S WCI  20
SHEBOYGAN      CLEAR     32  23  69 SW9       29.90F WCI  24
WEST BEND      CLEAR     32  23  69 SW6       29.92S WCI  26
JUNEAU         CLEAR     26  22  82 S7        29.92S WCI  19
$$

LSZ147-162-200900-
LAKE SUPERIOR

STATION/POSITION TIME  TEMP    WIND        PRES    WAVE
                       AIR SEA DIR/SP/G            HT/PER
                 (UTC) (F)     (DEG/KT/KT) (MB)    (FT/S)
DEVILS ISLAND    0700   31     140/  5/  5 1009.3F
SAXON HARBOR     0730   23     180/  1/  2 1008.1F
$$

LMZ867-665-643>646-200900-
LAKE MICHIGAN

STATION/POSITION TIME  TEMP    WIND        PRES    WAVE
                       AIR SEA DIR/SP/G            HT/PER
                 (UTC) (F)     (DEG/KT/KT) (MB)    (FT/S)
N MID LAKE BUOY  0650   36 48  270/ 16/ 19 1012.4F   3/ 4
NORTHPORT PIER   0740   32     250/  2/  5 1011.5S
KEWAUNEE LAKESHO 0730   30     200/  4/  5 1011.3F
SHEBOYGAN LAKESH 0700   34     230/ 14/ 15 1013.3F
PORT WASHINGTON  0740   32     250/ 10/ 15 1014.2F
MILWAUKEE LAKESH 0730   33     240/ 15/ 18   N/A
S MID LAKE BUOY  0650   40 49  270/ 23/ 27 1015.6F   5/ 5
KENOSHA   LAKESH 0700   34     240/ 11/ 17 1015.2
$$

TC  - TEMPERATURE IN CELSIUS
VSB - VISIBILITY IN STATUTE MILES
WCI - WIND CHILL INDEX
HX  - HEAT INDEX





USA.gov is the U.S. government's official web portal to all federal, state and local government web resources and services.